Live-Position
3D-Globus wird geladen...
Über Starlink 3926
Group: 3 satellites
Beschreibung wird geladen...
Nächste Überflüge
Passes for default location (London). Set your location on the main map for personalized predictions.
Höhenverlauf
Loading altitude history...
No altitude history available
Zweizeiliger Elementsatz
1 52543U 22051L 26124.59828505 -.00000482 00000-0 -12199-4 0 9998
2 52543 53.2162 238.1353 0001176 94.3244 265.7882 15.08854480219885
Epoch: 4. Mai 2026 •
Age: 9 hours
Aktueller Status
Höhe 557.2 km
Geschwindigkeit 7.58 km/s
Subsatellitenpunkt -48.73°S,
38.22°W
Startdatum 13. Mai 2022
Alter 3.9 years
Typ internet
Startgruppe
Falcon 9 •
Group 4-13 •
42 satellites
Starlink 3958
52535
Starlink 3964 52536
Starlink 3897 52537
Starlink 3933 52538
Starlink 3757 52539
Starlink 3940 52540
Starlink 3845 52541
Starlink 3937 52542
Starlink 3944 52544
Starlink 3948 52546
Starlink 3931 52548
Starlink 3935 52549
Starlink 3965 52550
Starlink 3969 52551
Starlink 3966 52552
Starlink 3858 52553
Starlink 3770 52554
Starlink 3943 52557
Starlink 3953 52559
Starlink 3956 52560
...and 21 more
Technische Details
Klassifizierung Payload
Masse 297.00 kg
Trockenmasse 275.00 kg
Gesamtmasse 297.00 kg
Länge 0.20 m
Durchmesser 2.80 m
Spannweite 9.00 m
Form Box + pan
Hersteller SPXS
Bus-Typ Starlink
Phasenstatus In Orbit
Besitzer/Staat SPXS/US
Most Searched
Loading...